Date String (YYYY-MM-DD hh:mm:ss) UTC,Instrument flags,Ambient pressure (hPa),Sample flow (lpm),Bypass flow (lpm),Sample temperature (°C),Ambient temperature (°C),ASC tube jacket temperature (°C),LED temperature (°C),Box temperature (°C),Sample RH (%),Span deviation,Mass concentration (μg/m³),Mass concentration (μg/m³),Mass concentration (μg/m³)
DateTimeUTC,F1_M11,P_M11,Q1_M11,Q2_M11,T1_M11,T2_M11,T3_M11,T4_M11,T5_M11,U1_M11,ZSPAN_M11,X0_M11,X2_M11,X1_M11
2023-01-16 01:00:00,,0808.4,5.00,0.00,23.7,22.4,00.0,32.5,25.5,14.9,0000.0,0006.22,0003.40,0003.19
2023-01-16 01:01:00,,0808.4,4.99,0.00,23.7,22.4,00.0,32.5,25.5,14.9,0000.0,0006.37,0003.40,0003.19
2023-01-16 01:02:00,,0808.4,5.01,0.00,23.7,22.4,00.0,32.5,25.5,14.9,0000.0,0006.63,0003.41,0003.20
2023-01-16 01:03:00,,0808.4,5.00,0.00,23.7,22.4,00.0,32.5,25.5,15.0,0000.0,0007.49,0003.45,0003.22
2023-01-16 01:04:00,,0808.4,5.00,0.00,23.7,22.4,00.0,32.5,25.5,15.0,0000.0,0008.06,0003.49,0003.24
2023-01-16 01:05:00,,0808.4,5.01,0.00,23.7,22.4,00.0,32.5,25.5,15.1,0000.0,0007.80,0003.54,0003.29
2023-01-16 01:06:00,,0808.4,5.00,0.00,23.7,22.4,00.0,32.5,25.5,15.1,0000.0,0007.81,0003.57,0003.31
2023-01-16 01:07:00,,0808.5,5.00,0.00,23.7,22.4,00.0,32.6,25.6,15.1,0000.0,0007.87,0003.58,0003.33
2023-01-16 01:08:00,,0808.5,5.01,0.00,23.8,22.4,00.0,32.6,25.6,15.0,0000.0,0007.97,0003.60,0003.34
2023-01-16 01:09:00,,0808.5,5.00,0.00,23.7,22.4,00.0,32.6,25.5,15.0,0000.0,0008.03,0003.63,0003.35
2023-01-16 01:10:00,,0808.5,5.01,0.00,23.7,22.4,00.0,32.6,25.5,15.0,0000.0,0008.61,0003.65,0003.36
2023-01-16 01:11:00,,0808.5,5.01,0.00,23.8,22.5,00.0,32.6,25.6,15.0,0000.0,0009.04,0003.68,0003.37
2023-01-16 01:12:00,,0808.4,4.99,0.00,23.8,22.5,00.0,32.6,25.5,15.1,0000.0,0009.04,0003.69,0003.37
2023-01-16 01:13:00,,0808.4,5.01,0.00,23.8,22.5,00.0,32.6,25.5,15.1,0000.0,0008.65,0003.70,0003.37
2023-01-16 01:14:00,,0808.4,5.00,0.00,23.8,22.5,00.0,32.6,25.5,15.1,0000.0,0008.19,0003.71,0003.36
2023-01-16 01:15:00,,0808.5,5.00,0.00,23.8,22.4,00.0,32.6,25.6,15.1,0000.0,0007.42,0003.67,0003.34
2023-01-16 01:16:00,,0808.5,4.99,0.00,23.8,22.4,00.0,32.6,25.5,15.1,0000.0,0007.32,0003.63,0003.31
2023-01-16 01:17:00,,0808.5,5.01,0.00,23.8,22.4,00.0,32.6,25.5,15.1,0000.0,0007.35,0003.60,0003.28
2023-01-16 01:18:00,,0808.5,5.01,0.00,23.8,22.5,00.0,32.6,25.5,15.1,0000.0,0007.24,0003.56,0003.26
2023-01-16 01:19:00,,0808.6,5.00,0.00,23.8,22.5,00.0,32.6,25.5,15.2,0000.0,0006.91,0003.52,0003.25
2023-01-16 01:20:00,,0808.6,5.02,0.00,23.8,22.5,00.0,32.6,25.6,15.2,0000.0,0006.80,0003.50,0003.25
2023-01-16 01:21:00,,0808.6,5.00,0.00,23.8,22.5,00.0,32.6,25.6,15.2,0000.0,0005.99,0003.49,0003.25
2023-01-16 01:22:00,,0808.7,5.00,0.00,23.8,22.5,00.0,32.6,25.6,15.2,0000.0,0005.05,0003.48,0003.25
2023-01-16 01:23:00,,0808.7,5.00,0.00,23.8,22.5,00.0,32.6,25.6,15.2,0000.0,0005.64,0003.46,0003.25
2023-01-16 01:24:00,,0808.7,5.00,0.00,23.8,22.5,00.0,32.6,25.6,15.2,0000.0,0005.57,0003.44,0003.23
2023-01-16 01:25:00,,0808.7,5.03,0.00,23.8,22.5,00.0,32.6,25.6,15.2,0000.0,0005.84,0003.41,0003.22
2023-01-16 01:26:00,,0808.7,5.04,0.00,23.8,22.5,00.0,32.6,25.6,15.2,0000.0,0005.98,0003.42,0003.22
2023-01-16 01:27:00,,0808.7,5.00,0.00,23.8,22.5,00.0,32.6,25.6,15.2,0000.0,0006.04,0003.43,0003.22
2023-01-16 01:28:00,,0808.8,5.01,0.00,23.8,22.5,00.0,32.6,25.6,15.3,0000.0,0005.98,0003.40,0003.19
2023-01-16 01:29:00,,0808.8,4.99,0.00,23.8,22.4,00.0,32.6,25.6,15.4,0000.0,0006.13,0003.39,0003.16
2023-01-16 01:30:00,,0808.9,5.01,0.00,23.8,22.4,00.0,32.6,25.6,15.5,0000.0,0006.14,0003.37,0003.13
2023-01-16 01:31:00,,0808.9,4.99,0.00,23.8,22.4,00.0,32.6,25.6,15.6,0000.0,0006.13,0003.37,0003.11
2023-01-16 01:32:00,,0808.9,5.00,0.00,23.8,22.3,00.0,32.6,25.5,15.7,0000.0,0006.18,0003.37,0003.08
2023-01-16 01:33:00,,0808.9,4.99,0.00,23.8,22.2,00.0,32.6,25.5,15.9,0000.0,0006.28,0003.36,0003.05
2023-01-16 01:34:00,,0808.9,5.00,0.00,23.7,22.1,00.0,32.6,25.5,16.1,0000.0,0005.67,0003.35,0003.01
2023-01-16 01:35:00,,0808.9,5.00,0.00,23.7,22.0,00.0,32.6,25.5,16.3,0000.0,0005.39,0003.34,0002.99
2023-01-16 01:36:00,,0808.9,4.99,0.00,23.7,21.9,00.0,32.6,25.4,16.5,0000.0,0005.12,0003.33,0002.94
2023-01-16 01:37:00,,0809.0,5.01,0.00,23.6,21.8,00.0,32.6,25.3,16.6,0000.0,0005.07,0003.32,0002.88
2023-01-16 01:38:00,,0809.0,5.01,0.00,23.6,21.8,00.0,32.5,25.3,16.6,0000.0,0004.94,0003.27,0002.82
2023-01-16 01:39:00,,0809.1,5.02,0.00,23.6,21.9,00.0,32.5,25.3,16.7,0000.0,0005.54,0003.26,0002.79
2023-01-16 01:40:00,,0809.1,4.98,0.00,23.6,21.9,00.0,32.5,25.3,16.9,0000.0,0006.58,0003.22,0002.76
2023-01-16 01:41:00,,0809.0,5.01,0.00,23.6,22.0,00.0,32.5,25.3,17.0,0000.0,0006.51,0003.20,0002.74
2023-01-16 01:42:00,,0809.0,5.00,0.00,23.6,22.0,00.0,32.5,25.4,17.1,0000.0,0006.38,0003.15,0002.69
2023-01-16 01:43:00,,0809.1,5.00,0.00,23.6,22.0,00.0,32.5,25.3,17.1,0000.0,0006.18,0003.07,0002.63
2023-01-16 01:44:00,,0809.1,5.00,0.00,23.6,22.1,00.0,32.5,25.3,17.2,0000.0,0005.92,0002.96,0002.56
2023-01-16 01:45:00,,0809.2,5.00,0.00,23.6,22.1,00.0,32.5,25.3,17.3,0000.0,0005.62,0002.83,0002.49
2023-01-16 01:46:00,,0809.2,5.01,0.00,23.6,22.1,00.0,32.5,25.3,17.4,0000.0,0005.58,0002.77,0002.41
2023-01-16 01:47:00,,0809.2,4.99,0.00,23.6,22.1,00.0,32.4,25.3,17.5,0000.0,0005.42,0002.67,0002.34
2023-01-16 01:48:00,,0809.2,5.00,0.00,23.5,22.0,00.0,32.4,25.2,17.7,0000.0,0005.14,0002.55,0002.29
2023-01-16 01:49:00,,0809.2,4.99,0.00,23.5,22.0,00.0,32.4,25.2,17.8,0000.0,0005.16,0002.50,0002.23
2023-01-16 01:50:00,,0809.3,4.98,0.00,23.5,21.9,00.0,32.4,25.2,17.9,0000.0,0005.18,0002.45,0002.20
2023-01-16 01:51:00,,0809.2,4.99,0.00,23.5,21.8,00.0,32.4,25.2,18.0,0000.0,0003.38,0002.40,0002.16
2023-01-16 01:52:00,,0809.2,5.00,0.00,23.5,21.8,00.0,32.4,25.1,18.1,0000.0,0003.32,0002.37,0002.14
2023-01-16 01:53:00,,0809.3,4.98,0.00,23.4,21.7,00.0,32.4,25.1,18.1,0000.0,0003.25,0002.36,0002.12
2023-01-16 01:54:00,,0809.3,5.00,0.00,23.4,21.6,00.0,32.4,25.1,18.1,0000.0,0003.40,0002.42,0002.13
2023-01-16 01:55:00,,0809.2,5.00,0.00,23.4,21.6,00.0,32.4,25.1,18.3,0000.0,0003.65,0002.45,0002.13
2023-01-16 01:56:00,,0809.3,5.00,0.00,23.4,21.5,00.0,32.3,25.0,18.4,0000.0,0004.06,0002.51,0002.12
2023-01-16 01:57:00,,0809.3,5.00,0.00,23.3,21.6,00.0,32.3,25.0,18.5,0000.0,0006.28,0002.57,0002.12
2023-01-16 01:58:00,,0809.3,5.00,0.00,23.3,21.6,00.0,32.3,25.0,18.7,0000.0,0007.56,0002.65,0002.12
2023-01-16 01:59:00,,0809.3,5.02,0.00,23.3,21.6,00.0,32.3,25.0,18.8,0000.0,0008.29,0002.71,0002.12
